Location: Newark
(7.1028°S, 35.3258°W)
Time: 18:44:09
(UTC+00:00)

Vanguard 2 - Visible Passes

Search period start: 16 February 2020 00:00
Search period end: 26 February 2020 00:00
Orbit: 552 x 2939 km, 32.9° (Epoch: 15 February)

Date Brightness Start Highest point End Pass type
(mag) Time Alt. Az. Time Alt. Az. Time Alt. Az.
16 Feb 11.5 05:01:59 11° NNE 05:01:59 11° NNE 05:02:37 10° NNE visible
17 Feb 11.5 05:18:56 10° NNE 05:18:56 10° NNE 05:19:12 10° NNE visible
22 Feb 9.2 22:19:20 10° S 22:20:30 13° SSE 22:20:30 13° SSE visible
23 Feb 9.1 22:36:12 10° SSW 22:37:30 17° SSW 22:37:30 17° SSW visible
24 Feb 9.5 22:53:36 10° SW 22:54:32 16° SW 22:54:32 16° SW visible
25 Feb 11.7 07:46:51 10° NNE 07:50:26 11° NNE 07:54:09 10° NE visible
25 Feb 9.2 21:05:10 10° S 21:06:43 12° SSE 21:08:11 10° SE visible
25 Feb 10.0 23:11:23 10° WSW 23:11:35 11° WSW 23:11:35 11° WSW visible
